Date,TemperatureHighF,TemperatureAvgF,TemperatureLowF,DewpointHighF,DewpointAvgF,DewpointLowF,HumidityHigh,HumidityAvg,HumidityLow,PressureMaxIn,PressureMinIn,WindSpeedMaxMPH,WindSpeedAvgMPH,GustSpeedMaxMPH,PrecipitationSumIn
2013-1-1,42,38,30,30,26,14,69,61,50,30.02,29.85,19,5,20,0.18
2013-1-2,31,28,25,15,13,11,59,55,50,30.20,29.99,13,3,14,0.00
2013-1-3,34,28,23,20,16,13,74,61,43,30.20,30.10,16,2,17,0.00
2013-1-4,38,34,28,22,20,19,73,57,50,30.12,29.99,27,6,29,0.01
2013-1-5,42,34,28,24,21,18,77,58,43,30.32,30.05,18,3,18,0.00
2013-1-6,47,38,31,35,29,23,95,72,50,30.23,29.98,13,2,14,0.03
2013-1-7,47,39,28,30,26,22,84,61,39,30.40,30.07,18,3,20,0.00
2013-1-8,48,35,24,33,28,21,91,76,54,30.43,30.34,25,2,25,0.00
2013-1-9,51,41,29,40,34,27,94,76,56,30.39,30.16,17,3,17,0.00
2013-1-10,50,44,35,33,26,24,71,51,37,30.53,30.27,18,4,20,0.00
2013-1-11,48,41,32,46,35,26,98,79,62,30.51,30.05,15,2,15,0.39
2013-1-12,47,45,44,46,45,43,99,98,95,30.16,30.06,10,2,10,0.00
2013-1-13,52,47,43,50,47,43,100,98,91,30.14,29.99,9,1,10,0.00
2013-1-14,50,50,50,50,50,50,99,99,99,29.99,29.99,0,0,0,0.00
2013-1-15,37,36,36,32,31,30,86,80,74,30.22,30.19,4,1,4,0.23
2013-1-16,38,36,34,36,34,31,98,95,87,30.19,29.81,23,3,24,0.69
2013-1-17,42,40,38,36,30,27,92,70,55,30.09,29.94,18,3,18,0.01
2013-1-18,38,30,26,27,14,3,68,51,31,30.49,30.00,29,5,29,0.00
2013-1-19,41,30,26,27,20,12,75,65,53,30.42,30.31,18,4,21,0.00
2013-1-20,55,46,35,29,17,10,38,31,22,30.02,29.73,28,10,29,0.00
2013-1-21,33,29,26,24,16,10,89,57,39,30.10,29.84,23,3,23,0.00
2013-1-22,26,19,14,10,1,-8,51,43,35,30.24,29.86,26,9,29,0.00
2013-1-23,20,16,10,5,0,-7,79,49,36,30.28,30.18,21,5,22,0.00
2013-1-24,25,18,10,8,1,-7,80,50,25,30.43,30.12,28,6,28,0.00
2013-1-25,23,17,9,15,4,-4,86,58,38,30.45,30.07,19,3,19,0.00
2013-1-26,28,19,5,12,7,0,87,62,40,30.39,30.06,18,4,20,0.00
2013-1-27,35,24,16,16,11,6,76,57,40,30.55,30.39,18,2,18,0.00
2013-1-28,36,31,20,35,27,14,97,86,72,30.50,30.01,13,2,14,0.13
2013-1-29,50,42,32,44,39,31,98,89,73,30.14,30.01,14,1,14,0.00
2013-1-30,67,56,40,59,51,39,99,86,70,30.05,29.34,33,4,33,0.01
2013-1-31,63,45,30,60,30,9,92,58,31,29.84,29.08,40,13,41,0.33
2013-2-1,31,28,23,18,8,1,70,43,29,30.27,29.83,29,8,29,0.00
2013-2-2,30,24,18,22,8,2,89,51,33,30.32,30.04,22,4,22,0.00
2013-2-3,32,26,22,25,20,17,92,79,59,30.04,29.80,13,1,13,0.00
2013-2-4,30,26,22,25,11,7,90,54,40,30.02,29.84,25,6,25,0.00
2013-2-5,33,30,28,30,26,19,91,85,68,29.96,29.88,9,2,9,0.00
2013-2-6,40,33,26,30,23,14,95,68,42,30.35,29.91,23,4,23,0.01
2013-2-7,35,29,22,24,16,10,74,58,46,30.48,30.27,13,2,13,0.00
2013-2-8,40,35,30,36,32,24,96,89,69,30.27,29.64,23,8,25,0.58
2013-2-9,33,28,22,31,17,7,100,66,40,30.36,29.76,29,9,31,0.03
2013-2-10,39,27,14,23,12,4,76,54,28,30.49,30.31,11,1,11,0.02
2013-2-11,50,40,31,50,38,23,99,93,71,30.31,29.64,16,1,18,0.31
2013-2-12,46,41,32,41,26,22,88,54,41,29.98,29.75,29,7,29,0.00
2013-2-13,44,34,25,32,26,22,96,73,47,29.96,29.67,11,2,11,0.02
2013-2-14,47,37,31,35,31,27,98,79,47,30.02,29.70,12,1,14,0.19
2013-2-15,58,43,30,36,32,26,94,69,35,30.02,29.90,19,2,20,0.01
2013-2-16,42,36,31,34,26,10,92,69,44,29.96,29.74,22,5,23,0.01
2013-2-17,32,28,21,11,4,-2,44,36,28,30.06,29.70,32,11,33,0.01
2013-2-18,37,27,19,14,6,-1,51,40,28,30.28,30.06,26,7,28,0.00
2013-2-19,50,39,29,44,30,12,95,71,46,30.20,29.69,26,4,27,0.21
2013-2-20,38,30,26,25,13,7,62,48,38,30.03,29.76,32,10,33,0.00
2013-2-21,36,29,24,15,12,9,59,49,39,30.28,30.01,32,9,32,0.00
2013-2-22,38,31,23,30,21,13,88,67,56,30.40,30.25,12,3,12,0.00
2013-2-23,46,41,34,46,40,30,100,97,88,30.25,29.85,20,3,20,0.16
2013-2-25,31,30,29,25,25,24,84,81,78,30.23,30.20,3,0,3,0.00
2013-2-26,45,36,25,38,29,23,93,78,54,30.25,29.79,28,7,33,0.25
2013-2-27,42,41,40,41,40,38,95,94,92,29.79,29.65,26,14,29,0.17
2013-3-5,50,40,33,27,22,-100,77,53,37,30.02,29.94,15,-18,17,0.00
2013-3-6,41,39,32,36,32,26,87,78,65,29.94,29.73,37,13,38,0.10
2013-3-7,43,34,34,33,17,-100,87,64,56,30.08,29.89,27,-87,27,0.00
2013-3-8,41,34,30,38,30,-100,99,88,58,30.20,30.02,23,-4,23,0.26
2013-3-9,58,43,32,26,21,11,68,46,16,30.31,30.17,16,3,17,0.00
2013-3-10,54,40,27,36,30,22,91,71,46,30.37,30.27,17,3,17,0.00
2013-3-16,34,33,33,31,31,29,93,91,83,29.82,29.76,10,3,10,0.03
2013-3-17,38,35,35,20,11,-100,49,43,41,30.20,30.14,18,-47,18,0.05
2013-3-18,38,32,29,36,20,13,95,63,50,30.37,29.91,24,4,24,0.35
2013-3-19,39,39,38,38,37,36,96,95,94,29.91,29.76,21,8,22,0.23
2013-3-20,46,38,31,24,18,13,56,46,26,29.92,29.78,22,4,22,0.00
2013-3-21,41,40,38,22,20,18,50,44,40,29.81,29.79,11,4,12,0.00
2013-3-22,40,33,28,20,18,14,65,53,40,29.91,29.76,26,7,26,0.00
2013-3-23,34,34,34,19,19,19,54,54,54,29.91,29.91,11,5,13,0.00
2013-3-25,35,32,33,33,25,-100,96,89,90,29.57,29.46,21,-35,21,0.26
2013-3-28,48,42,47,29,11,-100,48,39,41,30.07,30.00,20,-116,20,0.00
2013-3-29,48,46,45,30,30,29,57,52,47,30.14,30.10,12,2,12,0.00
2013-3-30,58,51,42,30,19,-100,62,32,23,30.15,30.07,18,-35,19,0.00
2013-3-31,56,53,46,44,37,30,92,59,38,29.98,29.79,23,8,24,0.14
2013-4-2,41,40,39,14,12,9,35,31,27,30.10,30.05,17,6,22,0.00
2013-4-3,43,41,38,10,9,7,30,27,23,30.29,30.23,22,8,22,0.00
2013-4-7,62,44,57,44,4,-100,60,39,47,30.02,30.00,16,-267,16,0.00
2013-4-9,81,12,79,44,-78,-100,28,4,27,29.95,29.89,6,-843,8,0.00
2013-4-10,68,21,63,50,-51,-100,61,18,51,29.92,29.77,20,-670,20,0.00
2013-4-11,-200,0,200,-100,-100,-100,0,0,100,29.87,29.77,0,-999,0,0.00
2013-4-19,-200,0,200,-100,-100,-100,0,0,100,29.70,29.64,0,-999,0,0.00
2013-4-20,58,26,50,35,-39,-100,53,18,28,30.30,29.69,24,-518,25,0.00
2013-4-21,54,21,40,28,-46,-100,45,16,27,30.60,30.30,14,-560,16,0.00
2013-4-22,49,23,42,36,-36,-100,71,28,51,30.61,30.45,24,-511,26,0.00
2013-4-23,48,18,43,42,-44,-100,89,32,70,30.45,30.11,15,-601,15,0.00
2013-4-24,73,30,48,53,-30,-100,84,27,47,30.12,29.82,18,-529,21,0.00
2013-4-25,64,27,47,31,-39,-100,51,16,22,30.26,29.88,22,-520,22,0.00
2013-4-26,64,29,52,35,-37,-100,53,16,22,30.40,30.26,16,-513,17,0.00
2013-4-27,69,30,50,34,-38,-100,53,14,22,30.43,30.27,18,-521,18,0.00
2013-4-28,72,30,50,44,-36,-100,80,17,26,30.31,30.19,20,-525,20,0.00
2013-4-29,-200,0,200,-100,-100,-100,0,0,100,30.22,30.14,0,-999,0,0.00
2013-4-30,65,27,56,48,-39,-100,69,19,29,30.31,30.17,20,-555,20,0.00
2013-5-1,64,29,51,43,-34,-100,60,20,27,30.46,30.31,21,-513,21,0.00
2013-5-2,70,31,51,45,-34,-100,80,20,27,30.45,30.32,13,-522,14,0.00
2013-5-3,61,27,53,42,-36,-100,65,22,35,30.43,30.34,21,-530,23,0.00
2013-5-4,66,35,45,45,-14,-100,82,34,37,30.36,30.22,18,-386,18,0.01
2013-5-5,60,50,41,42,40,37,91,69,48,30.28,30.20,18,4,21,0.00
2013-5-6,66,54,45,53,48,42,92,79,60,30.23,30.13,17,4,17,0.00
2013-5-7,69,58,51,58,54,49,99,87,67,30.15,30.05,16,5,18,0.00
2013-5-8,71,62,56,65,58,52,98,88,60,30.06,29.92,14,3,14,1.85
2013-5-9,71,62,55,58,55,52,99,79,53,29.98,29.89,14,2,15,0.64
2013-5-10,83,68,54,62,53,-100,98,65,28,30.00,29.88,15,-13,15,0.13
2013-5-11,77,67,62,65,63,58,97,87,53,29.91,29.69,20,2,20,0.38
2013-5-12,65,60,51,62,41,23,96,54,24,29.96,29.68,28,6,28,0.03
2013-5-13,56,49,41,36,28,-100,82,46,27,30.11,29.96,23,-6,23,0.00
2013-5-14,61,51,39,35,29,23,78,47,24,30.16,30.03,20,3,20,0.00
2013-5-15,75,62,49,58,49,32,81,64,47,30.07,29.70,16,2,20,0.00
2013-5-16,81,68,56,62,59,52,97,74,48,29.83,29.71,14,1,17,0.02
2013-5-17,74,66,56,60,42,35,77,44,26,30.19,29.83,18,3,18,0.00
2013-5-18,67,59,52,55,51,46,95,78,52,30.29,30.19,14,2,15,0.10
2013-5-19,61,59,56,60,58,54,99,97,94,30.28,30.15,15,4,16,0.14
2013-5-20,81,68,59,69,63,59,100,86,59,30.16,29.97,11,1,12,0.01
2013-5-21,84,74,65,69,67,64,99,79,58,29.98,29.85,16,2,16,0.00
2013-5-22,86,75,67,72,68,66,97,81,52,29.91,29.82,14,2,14,0.00
2013-5-23,81,73,68,71,67,65,94,83,59,29.89,29.74,20,4,22,0.08
2013-5-24,68,56,45,66,52,39,98,86,67,30.00,29.70,26,5,30,0.19
2013-5-25,60,52,45,42,37,30,87,59,35,30.04,29.95,32,9,32,0.08
2013-5-26,63,54,50,37,35,32,59,50,35,30.08,30.01,21,6,26,0.00
2013-6-2,89,80,71,69,67,63,87,65,46,29.91,29.79,23,4,29,0.00
2013-6-3,77,72,69,70,68,66,98,86,73,29.85,29.79,11,1,13,0.41
2013-6-5,59,59,59,56,56,56,90,90,90,30.12,30.12,0,0,0,0.00
2013-6-6,66,58,57,60,57,56,99,96,75,30.13,30.09,10,1,11,0.00
2013-6-7,67,63,60,67,63,60,99,98,95,29.95,29.56,14,5,17,2.22
2013-6-8,62,60,59,61,60,58,99,98,95,29.68,29.55,14,7,21,0.09
2013-6-9,83,77,70,65,61,56,81,60,42,30.16,30.11,10,1,12,0.00
2013-6-10,72,70,66,72,69,64,98,96,93,30.09,29.79,12,3,12,1.53
2013-6-11,71,70,68,70,68,67,97,96,94,29.79,29.74,17,2,17,0.04
2013-6-12,81,74,66,61,57,52,77,58,38,29.84,29.74,19,5,19,0.00
2013-6-13,78,68,60,70,62,56,95,81,63,29.84,29.39,18,3,21,0.49
2013-6-14,74,60,54,63,53,-100,96,82,53,29.91,29.49,21,-6,23,0.85
2013-6-15,81,69,55,60,56,49,98,67,35,30.02,29.91,17,2,18,0.01
2013-6-16,83,71,59,66,61,54,96,72,48,30.00,29.81,23,3,25,0.00
2013-6-17,86,75,66,68,65,62,98,74,46,29.92,29.83,16,2,19,0.00
2013-6-18,79,67,63,68,64,59,97,90,66,29.90,29.78,26,1,26,0.63
2013-6-19,79,68,60,63,54,44,96,66,31,30.16,29.85,14,3,14,0.00
2013-6-20,80,68,55,60,56,49,97,67,43,30.27,30.16,13,1,13,0.00
2013-6-21,80,65,56,58,54,49,90,69,42,30.31,30.26,7,0,9,0.00
2013-6-22,84,72,56,65,60,54,96,69,44,30.26,30.12,12,1,13,0.00
2013-6-23,86,74,62,73,66,57,97,77,54,30.20,30.06,14,2,16,0.25
2013-6-24,91,77,70,74,70,62,99,80,48,30.08,29.97,21,2,26,0.79
2013-6-25,91,78,67,72,68,64,96,75,43,30.01,29.83,21,2,22,0.00
2013-6-26,90,78,70,74,67,61,94,71,41,29.87,29.77,21,2,21,0.65
2013-6-27,87,78,71,74,71,69,98,82,55,29.81,29.57,19,2,22,0.29
2013-6-28,86,76,71,72,69,67,94,80,54,29.59,29.47,18,2,18,0.04
2013-6-29,87,76,67,72,67,61,99,76,45,29.70,29.49,14,1,16,0.01
2013-6-30,83,75,71,74,72,68,98,89,71,29.89,29.70,15,1,15,0.12
2013-7-1,79,75,73,75,72,70,96,92,86,30.03,29.88,12,1,13,0.10
2013-7-2,84,76,72,74,72,70,96,87,65,30.19,30.03,17,2,18,0.43
2013-7-3,86,76,70,78,73,70,99,91,68,30.25,30.16,7,1,14,0.56
2013-7-4,88,80,74,76,73,69,99,79,53,30.25,30.16,18,2,18,0.10
2013-7-5,90,81,72,75,72,69,96,75,51,30.22,30.10,17,2,17,0.00
2013-7-6,94,84,74,75,72,70,95,72,50,30.15,30.03,9,2,15,0.00
2013-7-7,93,83,74,75,72,68,92,71,50,30.08,29.94,21,2,21,0.01
2013-7-8,86,77,71,72,68,67,89,76,56,30.05,30.01,15,2,15,0.05
2013-7-10,85,83,80,72,71,70,76,68,64,29.86,29.83,9,1,10,0.07
2013-7-11,86,79,75,75,70,64,96,74,51,29.91,29.81,9,2,13,0.06
2013-7-12,76,72,69,70,66,62,96,81,65,30.04,29.90,18,5,23,0.57
2013-7-13,86,77,69,75,72,68,100,88,67,30.28,30.04,13,2,13,0.07
2013-7-14,90,81,73,76,73,70,99,79,53,30.34,30.24,11,1,11,0.01
2013-7-15,95,84,74,76,72,69,95,70,44,30.27,30.12,10,1,13,0.00
2013-7-16,92,84,76,74,69,63,87,62,40,30.20,30.12,15,2,15,0.00
2013-7-17,97,84,72,76,70,64,97,66,36,30.18,30.07,10,1,10,0.00
2013-7-18,97,86,74,76,73,70,91,67,43,30.08,29.95,10,1,10,0.00
2013-7-19,95,87,79,79,76,72,92,72,52,29.98,29.81,17,2,17,0.04
2013-7-20,93,84,77,75,72,70,80,67,48,29.84,29.74,19,3,19,0.00
2013-7-21,83,74,72,73,71,68,95,89,62,29.94,29.90,11,1,11,0.29
2013-7-22,84,76,72,77,73,69,100,91,71,29.94,29.77,18,2,18,1.45
2013-7-23,84,75,71,75,72,70,100,92,66,29.77,29.60,16,1,21,1.22
2013-7-24,74,74,74,71,71,71,90,90,89,29.64,29.64,1,0,2,0.00
2013-7-27,78,71,67,64,62,58,91,73,54,29.99,29.94,8,1,17,0.00
2013-7-28,67,67,66,66,65,64,96,94,91,29.96,29.95,3,0,3,0.56
2013-7-29,68,68,67,68,67,66,98,97,96,29.97,29.94,8,1,9,0.05
2013-7-30,63,62,61,59,58,56,91,85,79,30.13,30.11,6,0,6,0.00
2013-8-7,71,71,71,69,68,68,92,91,90,30.07,30.05,10,2,10,0.00
2013-8-8,86,76,70,76,71,69,97,84,62,30.06,29.97,15,2,15,0.12
2013-8-10,83,78,70,66,64,61,85,64,49,30.04,29.97,14,1,14,0.00
2013-8-11,84,73,62,68,61,55,94,69,42,30.12,30.00,6,1,14,0.00
2013-8-12,79,71,67,71,68,66,98,90,67,30.03,29.97,10,1,10,0.00
2013-8-13,81,76,72,70,69,66,91,78,62,29.76,29.70,11,1,11,0.93
2013-8-14,74,67,61,67,53,46,80,61,46,29.91,29.75,21,6,22,0.00
2013-8-15,75,63,54,56,51,43,96,70,34,30.15,30.08,15,1,15,0.00
2013-8-22,75,72,70,72,70,67,96,93,85,30.00,29.89,15,1,15,1.69
2013-8-23,79,72,66,70,63,54,96,75,44,30.08,29.89,12,2,13,0.00
2013-8-24,78,68,60,62,54,45,93,63,34,30.34,30.08,14,2,14,0.00
2013-8-25,81,68,54,62,55,48,99,69,33,30.40,30.24,10,1,11,0.00
2013-8-26,84,72,61,66,62,55,91,71,52,30.26,29.93,17,2,17,0.00
2013-8-27,87,77,71,70,67,64,91,72,49,29.93,29.85,16,2,16,0.02
2013-8-28,78,73,67,74,71,66,98,93,81,29.89,29.82,7,0,7,0.18
2013-8-29,79,72,67,71,68,64,98,86,62,30.03,29.86,14,2,14,0.00
2013-8-30,82,73,66,70,68,65,97,84,65,30.02,29.87,14,1,15,0.00
2013-8-31,87,77,69,74,70,67,97,82,63,29.89,29.79,14,1,14,0.00
2013-9-1,90,77,72,74,72,66,97,83,56,29.85,29.76,22,1,22,0.03
2013-9-2,81,75,72,75,72,68,99,92,68,29.79,29.71,11,0,11,0.17
2013-9-3,82,74,67,72,65,56,99,76,43,29.89,29.71,17,2,17,0.00
2013-9-4,81,70,60,59,57,53,89,65,39,30.02,29.89,15,2,15,0.00
2013-9-5,78,68,60,61,55,43,93,65,35,30.12,29.95,17,2,17,0.00
2013-9-6,72,61,52,50,45,36,91,58,27,30.25,30.13,12,2,15,0.00
2013-9-7,79,63,46,57,50,44,98,68,29,30.14,29.91,13,1,13,0.00
2013-9-8,81,71,62,65,58,44,92,66,40,30.07,29.84,18,3,18,0.00
2013-9-9,76,64,53,60,53,46,84,67,47,30.22,30.07,15,2,15,0.00
2013-9-10,86,75,65,72,68,60,92,80,61,30.18,30.06,14,2,16,0.00
2013-9-11,92,81,72,76,72,70,96,76,53,30.12,29.98,17,1,17,0.00
2013-9-12,87,76,70,76,70,67,97,84,61,30.00,29.69,21,2,22,0.30
2013-9-13,76,68,60,70,60,50,98,76,49,29.87,29.65,21,3,22,0.07
2013-9-14,66,58,49,51,47,44,88,67,51,30.14,29.87,19,4,19,0.00
2013-9-15,73,59,45,54,48,44,97,70,39,30.22,30.09,13,1,13,0.00
2013-9-16,72,62,58,60,55,49,94,79,54,30.22,30.03,14,2,14,0.11
2013-9-17,63,55,45,49,41,34,92,61,37,30.42,30.22,17,4,17,0.00
2013-9-18,71,56,40,51,45,39,98,71,35,30.35,30.19,10,0,11,0.00
2013-9-19,76,60,44,55,50,44,98,74,37,30.20,30.08,11,1,12,0.00
2013-9-20,79,64,48,60,54,47,99,76,42,30.09,29.98,13,1,13,0.00
2013-9-21,80,66,50,67,58,50,99,81,40,30.01,29.68,21,2,21,0.89
2013-9-22,69,64,56,66,53,42,98,73,41,29.91,29.66,21,4,21,0.81
2013-9-23,63,56,51,45,44,43,75,63,49,30.05,29.99,13,3,15,0.00
2013-9-24,72,57,45,49,44,41,87,65,40,30.07,29.89,14,2,15,0.00
2013-9-27,69,63,56,55,52,48,92,68,49,30.26,30.17,10,2,12,0.00
2013-9-28,71,61,52,55,52,47,93,74,44,30.31,30.22,15,2,15,0.00
2013-9-29,70,58,48,58,51,47,99,79,47,30.22,30.07,10,2,13,0.00
2013-9-30,74,59,47,57,51,46,99,77,39,30.08,29.97,10,1,11,0.00
2013-10-1,80,64,50,60,56,50,99,78,46,30.02,29.91,12,1,13,0.01
2013-10-2,83,68,54,62,59,53,99,76,43,30.02,29.93,16,2,16,0.00
2013-10-3,81,68,56,63,57,52,98,73,38,30.12,30.02,7,0,7,0.00
2013-10-4,86,71,58,66,62,57,98,77,45,30.07,29.97,15,1,15,0.00
2013-10-5,81,70,64,68,65,63,97,85,61,30.07,30.00,13,2,13,0.01
2013-10-6,80,69,65,69,66,64,99,91,69,30.07,29.97,15,2,15,0.00
2013-10-7,80,68,59,71,64,49,98,88,63,30.01,29.77,27,3,30,0.39
2013-10-8,66,57,51,51,47,42,91,70,43,30.30,30.01,18,2,18,0.00
2013-10-9,61,56,51,51,47,43,83,72,62,30.35,30.23,21,4,21,0.00
2013-10-10,62,57,53,58,53,48,96,86,72,30.24,30.03,20,7,22,0.19
2013-10-11,65,64,64,60,59,58,88,82,78,30.04,30.02,16,7,17,0.40
2013-10-12,70,64,60,58,52,46,83,67,52,30.22,30.03,24,8,27,0.02
2013-10-13,65,59,50,55,50,45,91,73,52,30.36,30.22,21,7,22,0.00
2013-10-14,68,56,47,52,49,45,97,80,50,30.35,30.23,13,1,13,0.00
2013-10-15,71,56,45,55,46,36,99,75,28,30.26,30.11,13,2,13,0.00
2013-10-16,68,60,52,59,56,49,96,87,70,30.11,29.92,9,1,9,0.00
2013-10-17,72,66,60,63,61,59,97,86,68,29.92,29.70,15,1,17,0.00
2013-10-18,67,60,47,62,46,41,87,60,42,30.00,29.70,23,4,26,0.00
2013-10-19,64,53,41,55,46,40,97,80,51,30.00,29.77,12,1,13,0.00
2013-10-20,62,53,42,54,40,31,93,64,31,30.08,29.79,18,4,20,0.00
2013-10-21,67,52,37,49,40,34,98,69,31,30.16,29.98,18,1,18,0.00
2013-10-22,67,54,43,51,45,34,96,71,47,29.98,29.77,18,2,18,0.00
2013-10-23,55,48,42,42,37,33,83,67,53,29.82,29.61,18,2,18,0.00
2013-10-24,53,46,40,36,31,24,78,58,35,30.05,29.78,21,4,23,0.00
2013-10-25,54,44,36,34,31,27,86,60,38,30.25,30.05,18,3,21,0.00
2013-10-26,56,44,31,36,31,26,94,65,34,30.25,29.91,23,2,24,0.00
2013-10-27,58,50,42,36,32,30,68,51,36,30.14,29.88,20,3,21,0.00
2013-10-28,62,46,31,39,35,29,94,69,36,30.29,30.14,14,1,15,0.00
2013-10-29,60,47,37,42,37,32,92,72,44,30.39,30.30,12,2,13,0.00
2013-10-30,58,48,40,53,45,37,93,90,77,30.34,30.18,7,0,7,0.01
2013-10-31,70,61,50,62,55,49,97,82,65,30.22,29.80,18,2,19,0.02
2013-11-1,71,65,57,63,59,54,98,80,60,29.80,29.57,28,5,39,0.04
2013-11-2,70,58,51,58,48,39,100,74,37,29.79,29.62,14,1,14,0.13
2013-11-3,53,46,35,41,31,18,79,57,30,30.45,29.79,22,5,22,0.01
2013-11-4,46,37,32,28,20,12,76,52,28,30.64,30.45,16,3,16,0.00
2013-11-5,57,45,34,42,36,26,91,70,52,30.63,30.47,12,1,12,0.00
2013-11-6,66,52,35,56,45,34,98,79,50,30.49,30.03,14,2,16,0.00
2013-11-7,63,55,38,59,50,33,93,83,63,30.06,29.77,23,4,24,0.07
2013-11-8,49,43,37,36,28,24,86,55,39,30.25,29.96,24,5,25,0.00
2013-11-9,51,41,30,32,28,23,85,61,35,30.31,29.97,13,1,14,0.00
2013-11-10,61,48,37,36,30,24,83,53,31,30.11,29.86,28,6,32,0.00
2013-11-11,54,48,40,36,29,25,59,48,35,30.23,29.96,18,4,20,0.00
2013-11-12,50,38,30,37,23,14,88,56,40,30.32,29.94,26,6,28,0.02
2013-11-13,40,32,27,20,14,6,70,48,27,30.40,30.30,20,4,23,0.00
2013-11-14,55,41,28,22,16,8,70,40,16,30.31,30.19,22,3,23,0.00
2013-11-15,60,42,29,34,27,20,83,60,21,30.26,30.16,10,0,10,0.00
2013-11-16,56,47,38,48,42,31,96,85,66,30.34,30.24,11,1,12,0.03
2013-11-17,67,57,47,60,54,46,98,90,71,30.25,29.72,16,2,17,0.00
2013-11-18,66,60,50,63,38,24,95,48,24,29.83,29.62,24,6,27,0.17
2013-11-19,50,43,35,27,23,20,57,45,38,30.36,29.82,28,7,28,0.00
2013-11-20,44,34,27,22,16,6,71,50,21,30.59,30.35,14,2,15,0.00
2013-11-21,53,43,29,41,32,16,80,65,52,30.59,30.36,14,2,15,0.00
2013-11-22,58,52,46,50,47,40,92,84,71,30.38,29.93,17,2,18,0.00
2013-11-23,53,43,31,50,26,15,88,51,35,30.06,29.93,30,8,30,0.00
2013-11-24,31,26,23,15,0,-3,51,32,25,30.43,30.05,34,10,34,0.00
2013-11-25,35,28,22,16,11,3,64,49,35,30.51,30.34,15,3,15,0.00
2013-11-26,55,37,30,54,29,16,100,73,46,30.35,29.67,23,3,24,0.31
2013-11-27,64,46,34,62,42,19,98,87,52,29.82,29.37,30,8,34,0.98
2013-11-28,36,32,27,23,15,9,75,52,34,30.48,29.82,28,7,28,0.03
2013-11-29,40,32,24,26,19,16,89,62,40,30.72,30.47,17,2,17,0.09
2013-11-30,39,32,24,28,20,11,74,62,52,30.72,30.36,15,2,15,0.05
2013-12-1,50,40,29,33,30,26,89,69,48,30.36,30.02,10,1,12,0.06
2013-12-2,51,40,31,34,31,27,87,71,40,30.02,29.87,6,0,6,0.00
2013-12-3,54,42,33,40,35,30,89,76,49,30.00,29.87,10,1,10,0.00
2013-12-4,53,44,32,44,37,30,92,80,62,30.11,30.00,7,0,7,0.00
2013-12-5,60,54,48,59,52,44,99,93,87,30.10,29.93,15,1,15,0.01
2013-12-6,62,49,38,61,48,37,99,93,85,30.14,29.86,20,5,20,0.25
2013-12-7,39,36,31,37,28,18,98,74,58,30.51,30.06,19,5,20,0.16
2013-12-8,32,28,26,31,20,15,96,74,57,30.59,30.32,12,2,12,0.00
2013-12-9,37,35,32,36,34,31,99,97,96,30.32,29.99,15,4,15,0.19
2013-12-10,34,31,25,33,29,19,98,92,70,30.17,29.88,15,2,16,0.09
2013-12-11,33,27,18,20,16,13,87,65,47,30.37,30.17,13,2,19,0.01
2013-12-12,23,21,18,18,11,5,89,68,45,30.37,30.20,13,2,19,0.00
2013-12-13,36,28,18,18,11,7,72,49,38,30.29,30.16,19,5,19,0.01
2013-12-14,34,30,28,33,27,20,97,88,67,30.43,29.67,17,7,18,0.00
2013-12-15,39,36,31,34,29,21,98,77,58,29.87,29.54,14,6,14,0.72
2013-12-16,32,26,21,22,10,6,75,50,38,30.23,29.92,16,5,18,0.00
2013-12-17,30,26,24,28,22,13,91,86,59,30.17,29.94,6,2,6,0.04
2013-12-18,38,30,21,22,20,16,85,67,47,30.19,29.93,17,4,0,0.02
2013-12-19,46,38,25,30,26,19,80,62,44,30.20,30.04,13,2,0,0.03
2013-12-20,54,48,34,47,34,29,89,61,43,30.10,29.98,10,2,5,0.00
2013-12-21,67,59,49,52,50,45,90,71,57,30.00,29.89,11,4,13,0.00
2013-12-22,68,66,62,63,60,56,87,81,71,29.95,29.85,12,4,16,0.08
2013-12-23,63,49,42,59,43,32,98,80,67,30.15,29.90,19,6,19,0.22
2013-12-24,42,37,32,33,22,18,69,54,45,30.28,30.11,16,6,15,0.01
2013-12-25,28,25,22,18,9,6,72,52,40,30.54,30.42,5,2,10,0.01
2013-12-26,39,28,22,26,20,17,83,73,55,30.42,30.18,9,2,0,0.08
2013-12-27,44,32,26,23,21,18,83,66,36,30.38,30.28,3,0,0,0.10
2013-12-28,56,39,25,28,25,22,86,60,30,30.30,30.10,14,4,0,0.12
2013-12-30,44,32,26,37,19,12,92,58,49,30.18,29.72,12,4,11,0.00
2013-12-31,36,29,23,23,13,9,65,51,45,30.31,30.07,16,4,7,0.00
2014-1-1,39,32,25,23,17,10,67,54,43,30.41,30.22,8,2,10,0.00
2014-1-2,34,26,20,27,23,18,92,86,71,30.20,29.63,19,6,19,0.00